Lid_Strength_Index
10 14 16 13 11 12 12 12 13 11 9 9 10 10 9 9 8 9 9 8 8 7 6 5 5 5 6 5 3 2 2 2 1 2 3 3 2 2 3 2 2 1 1 0
10 14 11 9 9 9 11 13 12 10 8 9 9 10 9 8 9 8 9 9 8 8 7 5 6 6 5 4 3 4 4 2 1 1 2 2 3 3 2 3 2 1 2 1
11 10 8 9 10 12 11 13 12 12 10 9 11 12 10 8 9 8 7 8 8 7 7 6 5 6 5 4 4 3 3 5 4 2 3 4 3 4 4 4 3 2 1 1
12 9 11 11 12 11 13 11 11 11 12 16 10 17 12 9 10 9 9 9 8 7 6 6 5 5 6 5 3 3 2 2 2 3 4 4 4 5 5 4 4 2 1 1
12 10 12 13 11 9 11 9 11 11 12 14 13 16 15 11 12 10 10 8 9 7 7 6 4 5 5 5 4 3 2 2 2 2 2 2 4 3 4 4 4 4 2 1
10 8 9 10 9 8 7 10 11 11 13 19 14 15 16 14 12 10 9 8 7 7 6 5 4 5 5 5 5 5 5 4 3 2 3 3 3 3 4 4 3 2 2 1
10 10 8 8 11 9 10 12 17 20 20 20 12 15 13 10 9 9 9 7 6 6 6 6 5 5 5 6 6 5 5 4 4 4 3 4 2 3 3 3 3 3 2 2
15 17 11 8 10 11 11 12 18 23 21 18 12 16 13 9 8 8 7 6 6 6 5 5 5 6 6 6 6 7 6 6 5 4 3 3 4 2 3 2 2 2 2 1
15 15 9 8 8 9 11 13 11 15 15 18 14 13 10 9 8 7 7 7 7 6 5 5 5 6 6 6 6 7 7 7 6 6 5 4 3 2 2 2 1 2 1 1
11 16 10 10 9 8 10 9 16 15 21 22 18 15 14 11 10 9 9 8 7 6 5 5 6 6 5 5 6 7 7 7 7 7 7 6 5 3 1 2 2 2 1 2
10 13 13 10 12 12 11 12 12 14 14 19 22 19 10 10 9 10 9 8 7 7 7 7 6 6 6 6 6 6 7 7 7 7 8 7 7 4 1 2 2 2 2 2
9 13 16 13 9 8 9 11 11 16 17 14 17 18 9 9 9 9 8 7 7 7 8 8 8 8 8 7 7 8 8 9 9 9 9 8 8 2 2 2 2 1 2 2
10 14 18 15 12 10 12 10 10 10 12 15 18 17 9 9 9 8 8 8 8 8 8 8 9 9 9 8 8 9 9 9 9 9 9 8 8 2 2 2 2 2 2 2
8 12 15 18 16 13 15 12 11 11 14 14 15 15 12 10 10 10 9 9 9 9 9 10 10 10 9 9 9 9 10 10 9 10 10 9 8 2 2 2 3 2 2 2
9 14 13 12 11 13 13 13 12 13 12 13 14 14 12 10 10 10 10 10 10 10 10 10 10 11 11 10 10 10 10 10 10 10 10 9 8 3 2 2 2 2 2 3
8 14 12 14 11 11 13 12 12 12 12 12 12 14 9 8 9 11 11 11 12 10 10 10 10 10 11 11 12 11 11 11 10 10 10 10 7 2 2 2 2 3 3 3
11 13 14 16 12 12 17 14 13 12 12 11 15 12 9 11 11 12 11 12 12 11 11 11 11 11 12 12 11 12 11 11 11 11 11 11 11 2 2 2 2 2 3 3
11 12 13 16 14 20 13 9 10 12 11 10 10 10 10 11 11 11 11 12 12 11 11 11 12 12 12 12 12 11 12 12 12 13 12 12 12 8 2 2 2 3 3 3
8 11 15 17 17 14 12 11 11 13 13 11 10 9 10 11 11 12 10 10 11 12 11 11 11 12 12 12 12 12 13 13 14 14 13 14 13 12 3 3 3 3 3 3
9 10 13 15 18 20 13 11 8 9 15 10 10 11 10 9 12 13 10 11 12 12 12 12 12 12 13 13 12 12 13 14 15 15 14 14 14 13 12 5 3 3 7 11
14 13 15 16 17 15 11 9 8 15 15 9 10 11 11 12 12 10 10 11 12 12 13 13 12 14 14 13 13 14 14 15 15 15 15 15 15 14 14 12 8 10 13 14
14 15 17 15 16 18 9 10 13 11 9 9 9 9 10 10 10 11 11 12 12 13 13 13 14 14 14 14 14 15 15 14 15 16 17 17 17 16 15 15 14 14 15 16
15 12 14 13 14 10 9 10 9 8 10 10 9 9 9 10 11 11 12 12 13 13 14 13 14 15 15 15 15 16 14 14 15 16 18 18 18 17 16 16 16 16 16 16
9 8 12 11 11 11 11 10 9 9 9 9 9 10 9 10 11 11 12 12 13 13 14 14 14 15 16 15 15 14 14 14 15 16 17 18 19 18 18 17 17 17 17 18
10 10 13 11 11 10 11 10 10 10 10 10 9 10 11 11 11 12 13 13 13 13 14 14 15 16 16 15 15 14 14 14 15 15 15 17 18 19 18 18 18 18 17 17
9 12 12 13 11 10 11 10 10 11 11 11 11 11 11 11 12 12 13 13 13 14 14 15 16 16 16 16 15 15 14 15 15 15 16 16 17 18 19 19 19 16 16 16